DW4130 Weather Reports


time (UTC)temp
C
wind
direction
speed
KPH
gust
KPH
rain 1hr
cm
rain 24hr
cm
rain mn
cm
humidity
%
barometer
mb
20260507095003 11 289 3.2 9.7 0.00 0.00 0.00 79 1013.4
20260507094504 11 284 3.2 9.7 0.00 0.00 0.00 79 1013.5
20260507094004 11 303 1.6 11.3 0.00 0.00 0.00 79 1013.4
20260507093504 12 286 1.6 8.0 0.00 0.00 0.00 79 1013.5
20260507093004 12 279 3.2 8.0 0.00 0.00 0.00 79 1013.6
20260507092504 12 288 1.6 11.3 0.00 0.00 0.00 79 1013.6
20260507092003 12 294 3.2 8.0 0.00 0.00 0.00 79 1013.7
20260507091503 12 295 1.6 8.0 0.00 0.00 0.00 80 1013.7
20260507091004 12 292 4.8 12.9 0.00 0.00 0.00 79 1013.7
20260507090503 12 301 3.2 9.7 0.00 0.00 0.00 79 1013.8
20260507090004 12 292 1.6 8.0 0.00 0.00 0.00 79 1013.8
20260507085003 12 343 1.6 11.3 0.00 0.00 0.00 79 1013.7
20260507084504 12 300 0.0 8.0 0.00 0.00 0.00 79 1013.7
20260507084002 12 282 0.0 8.0 0.00 0.00 0.00 79 1013.7
20260507083503 12 298 1.6 4.8 0.00 0.00 0.00 79 1013.7
20260507083003 11 283 1.6 8.0 0.00 0.00 0.00 79 1013.7
20260507082502 11 288 1.6 8.0 0.00 0.00 0.00 79 1013.7
20260507081502 11 312 1.6 4.8 0.00 0.00 0.00 79 1013.7
20260507080503 11 297 1.6 4.8 0.00 0.00 0.00 80 1013.7
20260507075503 11 294 1.6 11.3 0.00 0.00 0.00 80 1013.7
20260507075002 11 288 0.0 4.8 0.00 0.00 0.00 80 1013.7
20260507074503 11 303 0.0 9.7 0.00 0.00 0.00 80 1013.7
20260507073003 11 304 1.6 4.8 0.00 0.00 0.00 79 1013.6
20260507072503 12 312 0.0 3.2 0.00 0.00 0.00 79 1013.6
20260507072002 12 312 0.0 4.8 0.00 0.00 0.00 79 1013.5
20260507071503 12 279 1.6 3.2 0.00 0.00 0.00 79 1013.5
20260507071004 12 302 0.0 3.2 0.00 0.00 0.00 79 1013.5
20260507070503 12 299 1.6 4.8 0.00 0.00 0.00 79 1013.5
20260507070004 12 290 0.0 4.8 0.00 0.00 0.00 78 1013.5
20260507065502 12 290 0.0 4.8 0.00 0.00 0.00 78 1013.5
20260507065003 12 274 0.0 3.2 0.00 0.00 0.00 78 1013.6
20260507064503 12 271 1.6 8.0 0.00 0.00 0.00 78 1013.5
20260507064003 12 313 0.0 1.6 0.00 0.00 0.00 78 1013.5
20260507063502 12 313 0.0 3.2 0.00 0.00 0.00 78 1013.5
20260507062503 12 282 0.0 3.2 0.00 0.00 0.00 78 1013.5
20260507062003 12 271 1.6 4.8 0.00 0.00 0.00 78 1013.6
20260507061503 12 288 0.0 3.2 0.00 0.00 0.00 77 1013.6
20260507061003 12 288 1.6 4.8 0.00 0.00 0.00 77 1013.6
20260507060003 12 291 0.0 4.8 0.00 0.00 0.00 77 1013.5
20260507055505 12 273 1.6 4.8 0.00 0.00 0.00 77 1013.5
20260507055004 12 293 3.2 8.0 0.00 0.00 0.00 77 1013.5
20260507054503 12 285 0.0 3.2 0.00 0.00 0.00 77 1013.5
20260507054003 12 287 3.2 8.0 0.00 0.00 0.00 77 1013.5
20260507053504 12 281 1.6 8.0 0.00 0.00 0.00 77 1013.4
20260507053004 12 292 1.6 8.0 0.00 0.00 0.00 76 1013.4
20260507052503 12 293 3.2 14.5 0.00 0.00 0.00 76 1013.4
20260507052003 13 293 1.6 8.0 0.00 0.00 0.00 76 1013.4
20260507051504 13 310 1.6 8.0 0.00 0.00 0.00 76 1013.4
20260507051003 13 279 1.6 11.3 0.00 0.00 0.00 76 1013.4
20260507050503 13 308 1.6 4.8 0.00 0.00 0.00 76 1013.4
20260507050004 13 291 1.6 9.7 0.00 0.00 0.00 75 1013.4
20260507045503 13 278 1.6 8.0 0.00 0.00 0.00 75 1013.5
20260507044504 13 292 3.2 11.3 0.00 0.00 0.00 75 1013.5
20260507044003 13 291 1.6 8.0 0.00 0.00 0.00 75 1013.4
20260507043503 13 312 3.2 8.0 0.00 0.00 0.00 74 1013.4
20260507043003 13 277 1.6 11.3 0.00 0.00 0.00 74 1013.4
20260507042504 13 327 0.0 1.6 0.00 0.00 0.00 74 1013.5
20260507042004 13 310 3.2 9.7 0.00 0.00 0.00 74 1013.4
20260507041503 14 278 1.6 4.8 0.00 0.00 0.00 73 1013.4
20260507041004 14 237 0.0 4.8 0.00 0.00 0.00 73 1013.4
20260507040504 14 202 0.0 3.2 0.00 0.00 0.00 74 1013.3
20260507040003 14 293 3.2 14.5 0.00 0.00 0.00 74 1013.2
20260507034503 15 295 0.0 4.8 0.00 0.00 0.00 74 1013.0
20260507034003 15 280 1.6 9.7 0.00 0.00 0.00 74 1012.9
20260507033502 15 284 1.6 9.7 0.00 0.00 0.00 73 1012.9
20260507033003 15 303 3.2 14.5 0.00 0.00 0.00 73 1012.8
20260507032502 15 291 1.6 4.8 0.00 0.00 0.00 73 1012.7
20260507031503 15 288 1.6 8.0 0.00 0.00 0.00 73 1012.6
20260507031003 15 256 0.0 4.8 0.00 0.00 0.00 74 1012.5
20260507030502 15 276 1.6 11.3 0.00 0.00 0.00 73 1012.4
20260507030002 16 299 0.0 3.2 0.00 0.00 0.00 72 1012.4
20260507025502 16 302 0.0 3.2 0.00 0.00 0.00 72 1012.3
20260507025003 16 283 0.0 9.7 0.00 0.00 0.00 73 1012.3
20260507024504 16 296 0.0 8.0 0.00 0.00 0.00 72 1012.2
20260507024003 16 318 1.6 8.0 0.00 0.00 0.00 72 1012.3
20260507023502 16 298 0.0 4.8 0.00 0.00 0.00 72 1012.2
20260507022504 16 271 1.6 4.8 0.00 0.00 0.00 71 1012.2
20260507022003 17 299 1.6 9.7 0.00 0.00 0.00 71 1012.2
20260507021003 17 305 3.2 8.0 0.00 0.00 0.00 71 1012.2
20260507020502 17 295 3.2 12.9 0.00 0.00 0.00 71 1012.2
20260507020003 17 285 3.2 11.3 0.00 0.00 0.00 71 1012.2
20260507015503 17 302 3.2 8.0 0.00 0.00 0.00 70 1012.3
20260507015004 17 287 1.6 9.7 0.00 0.00 0.00 70 1012.3
20260507013504 17 290 3.2 8.0 0.00 0.00 0.00 70 1012.4
20260507012503 18 295 0.0 12.9 0.00 0.00 0.00 69 1012.4
20260507011503 18 304 0.0 3.2 0.00 0.00 0.00 69 1012.3
20260507011003 18 305 0.0 4.8 0.00 0.00 0.00 69 1012.3
20260507010504 18 291 1.6 9.7 0.00 0.00 0.00 69 1012.3
20260507010003 18 295 1.6 11.3 0.00 0.00 0.00 69 1012.3
20260507005503 18 287 1.6 4.8 0.00 0.00 0.00 69 1012.3
20260507005003 18 281 1.6 4.8 0.00 0.00 0.00 69 1012.3
20260507004003 18 127 0.0 4.8 0.00 0.00 0.00 70 1012.2
20260507003503 18 111 0.0 4.8 0.00 0.00 0.00 70 1012.2
20260507003004 18 87 0.0 3.2 0.00 0.00 0.00 70 1012.1
20260507002504 18 87 0.0 3.2 0.00 0.00 0.00 71 1012.2
20260507002003 18 87 0.0 3.2 0.00 0.00 0.00 71 1012.2
20260507001504 18 87 0.0 3.2 0.00 0.00 0.00 71 1012.2
20260507001004 18 294 1.6 4.8 0.00 0.00 0.00 71 1012.2
20260507000503 18 66 0.0 3.2 0.00 0.00 0.00 71 1012.2
20260507000005 18 66 3.2 4.8 0.00 0.00 0.00 71 1012.2
20260506235504 18 283 0.0 3.2 0.00 0.00 0.00 72 1012.2
20260506234504 18 20 0.0 4.8 0.00 0.00 0.00 72 1012.2
20260506234004 18 66 0.0 0.0 0.00 0.00 0.00 73 1012.2
20260506233503 18 65 1.6 4.8 0.00 0.00 0.00 72 1012.2
20260506233002 18 307 0.0 4.8 0.00 0.00 0.00 73 1012.2
20260506232502 18 323 0.0 3.2 0.00 0.00 0.00 72 1012.3
20260506232002 18 323 0.0 0.0 0.00 0.00 0.00 72 1012.2
20260506231003 18 287 0.0 4.8 0.00 0.00 0.00 69 1012.3
20260506230503 18 319 0.0 3.2 0.00 0.00 0.00 73 1012.3
20260506225503 18 321 0.0 0.0 0.00 0.00 0.00 72 1012.4
20260506225003 18 319 0.0 3.2 0.00 0.00 0.00 71 1012.5
20260506224503 18 319 0.0 3.2 0.00 0.00 0.00 71 1012.5
20260506224003 18 294 0.0 3.2 0.00 0.00 0.00 74 1012.6
20260506223503 18 294 0.0 3.2 0.00 0.00 0.00 70 1012.6
20260506223004 18 273 1.6 4.8 0.00 0.00 0.00 71 1012.6
20260506222503 18 139 0.0 1.6 0.00 0.00 0.00 73 1012.7
20260506222003 18 139 0.0 0.0 0.00 0.00 0.00 70 1012.7
20260506221504 18 139 0.0 3.2 0.00 0.00 0.00 72 1012.7
20260506221003 18 139 0.0 0.0 0.00 0.00 0.00 73 1012.8
20260506220503 18 139 0.0 3.2 0.00 0.00 0.00 71 1012.8
20260506215004 17 68 0.0 0.0 0.00 0.00 0.00 71 1012.8
20260506214504 17 69 0.0 3.2 0.00 0.00 0.00 73 1012.7
20260506214004 17 69 0.0 3.2 0.00 0.00 0.00 70 1012.8
20260506213503 17 105 0.0 3.2 0.00 0.00 0.00 72 1012.8
20260506213003 17 101 0.0 3.2 0.00 0.00 0.00 73 1012.8
20260506212003 17 93 1.6 3.2 0.00 0.00 0.00 72 1013.0
20260506211503 17 69 0.0 1.6 0.00 0.00 0.00 72 1013.1
20260506211004 17 69 0.0 3.2 0.00 0.00 0.00 72 1013.2
20260506210504 17 69 0.0 3.2 0.00 0.00 0.00 74 1013.1
20260506210004 16 69 0.0 3.2 0.00 0.00 0.00 74 1013.2
20260506205504 17 69 0.0 0.0 0.00 0.00 0.00 76 1013.3
20260506205004 17 69 0.0 3.2 0.00 0.00 0.00 75 1013.3
20260506204503 16 69 0.0 3.2 0.00 0.00 0.00 77 1013.2
20260506203503 17 76 0.0 3.2 0.00 0.00 0.00 77 1013.2
20260506203004 16 76 0.0 3.2 0.00 0.00 0.00 75 1013.2
20260506202503 16 76 0.0 1.6 0.00 0.00 0.00 74 1013.1
20260506202003 16 76 0.0 3.2 0.00 0.00 0.00 77 1013.2
20260506201503 16 76 0.0 3.2 0.00 0.00 0.00 76 1013.2
20260506201004 16 76 0.0 3.2 0.00 0.00 0.00 75 1013.2
20260506200504 16 75 0.0 1.6 0.00 0.00 0.00 76 1013.2
20260506200004 16 75 0.0 1.6 0.00 0.00 0.00 76 1013.3
20260506195504 16 75 0.0 1.6 0.00 0.00 0.00 76 1013.3
20260506195004 16 76 0.0 1.6 0.00 0.00 0.00 79 1013.4
20260506194504 16 76 0.0 3.2 0.00 0.00 0.00 76 1013.4
20260506193503 16 288 0.0 3.2 0.00 0.00 0.00 76 1013.6
20260506193004 16 288 1.6 4.8 0.00 0.00 0.00 78 1013.6
20260506192504 16 302 0.0 0.0 0.00 0.00 0.00 78 1013.5
20260506192005 16 302 0.0 0.0 0.00 0.00 0.00 75 1013.5
20260506191504 16 302 0.0 3.2 0.00 0.00 0.00 75 1013.4
20260506191004 17 302 3.2 4.8 0.00 0.00 0.00 75 1013.4
20260506190003 16 172 0.0 3.2 0.00 0.00 0.00 76 1013.4
20260506185003 16 61 1.6 3.2 0.00 0.00 0.00 75 1013.4
20260506184503 16 303 0.0 1.6 0.00 0.00 0.00 76 1013.4
20260506184003 16 303 1.6 4.8 0.00 0.00 0.00 77 1013.4
20260506183503 16 286 0.0 3.2 0.00 0.00 0.00 77 1013.3
20260506182502 16 286 0.0 3.2 0.00 0.00 0.00 76 1013.3
20260506182003 16 286 0.0 3.2 0.00 0.00 0.00 77 1013.3
20260506181503 16 286 0.0 3.2 0.00 0.00 0.00 76 1013.3
20260506181003 16 285 0.0 0.0 0.00 0.00 0.00 79 1013.3
20260506180004 16 285 0.0 3.2 0.00 0.00 0.00 78 1013.3
20260506175503 15 285 0.0 3.2 0.00 0.00 0.00 79 1013.3
20260506175004 15 285 1.6 4.8 0.00 0.00 0.00 79 1013.3
20260506174003 15 36 0.0 0.0 0.00 0.00 0.00 79 1013.2
20260506173003 15 36 0.0 0.0 0.00 0.00 0.00 79 1013.0
20260506172003 15 36 0.0 3.2 0.00 0.00 0.00 79 1013.0
20260506171503 15 286 0.0 1.6 0.00 0.00 0.00 79 1013.1
20260506171004 15 286 1.6 4.8 0.00 0.00 0.00 77 1013.1
20260506170503 15 311 1.6 3.2 0.00 0.00 0.00 78 1013.1
20260506170004 15 323 0.0 3.2 0.00 0.00 0.00 80 1013.1
20260506165503 15 81 0.0 3.2 0.00 0.00 0.00 79 1013.2
20260506165003 15 84 0.0 3.2 0.00 0.00 0.00 79 1013.1
20260506163503 15 296 0.0 4.8 0.00 0.00 0.00 81 1013.0
20260506163003 15 298 1.6 4.8 0.00 0.00 0.00 81 1013.1
20260506162504 14 235 0.0 0.0 0.00 0.00 0.00 81 1013.0
20260506162003 14 235 0.0 0.0 0.00 0.00 0.00 81 1012.9
20260506161504 14 235 0.0 3.2 0.00 0.00 0.00 82 1012.9
20260506160503 14 236 1.6 3.2 0.00 0.00 0.00 82 1012.8
20260506155503 14 99 0.0 3.2 0.00 0.00 0.00 81 1012.4
20260506155004 14 75 0.0 3.2 0.00 0.00 0.00 83 1012.3
20260506154503 13 288 0.0 0.0 0.00 0.00 0.00 83 1012.4
20260506154003 13 288 0.0 0.0 0.00 0.00 0.00 82 1012.4
20260506153504 13 288 0.0 3.2 0.00 0.00 0.00 83 1012.6
20260506153003 13 288 0.0 3.2 0.00 0.00 0.00 83 1012.8
20260506152004 13 297 0.0 4.8 0.00 0.00 0.00 83 1013.1
20260506151503 13 296 0.0 8.0 0.00 0.00 0.00 84 1013.1
20260506151004 13 290 1.6 8.0 0.00 0.00 0.00 84 1013.1
20260506150503 13 291 1.6 8.0 0.00 0.00 0.00 84 1013.1
20260506150003 13 287 1.6 8.0 0.00 0.00 0.00 84 1013.1
20260506145504 13 278 0.0 3.2 0.00 0.00 0.00 84 1013.0
20260506145003 13 278 0.0 0.0 0.00 0.00 0.00 84 1012.8
20260506144504 13 278 0.0 0.0 0.00 0.00 0.00 84 1012.8
20260506144003 13 278 0.0 3.2 0.00 0.00 0.00 84 1012.9
20260506143504 13 295 0.0 3.2 0.00 0.00 0.00 84 1012.8
20260506142502 13 294 0.0 3.2 0.00 0.00 0.00 84 1012.5
20260506142003 13 294 3.2 4.8 0.00 0.00 0.00 84 1012.4
20260506141502 13 291 0.0 0.0 0.00 0.00 0.00 84 1012.3
20260506141003 13 291 0.0 3.2 0.00 0.00 0.00 84 1012.3
20260506140002 13 290 1.6 4.8 0.00 0.00 0.00 85 1012.3
20260506135503 13 300 0.0 3.2 0.00 0.00 0.00 85 1012.3
20260506135002 13 302 0.0 3.2 0.00 0.00 0.00 84 1012.2
20260506134503 13 302 0.0 3.2 0.00 0.00 0.00 85 1012.1
20260506134002 13 302 0.0 4.8 0.00 0.00 0.00 85 1012.1
20260506133003 13 302 0.0 1.6 0.00 0.00 0.00 85 1012.0
20260506132003 13 302 0.0 0.0 0.00 0.00 0.00 84 1011.8
20260506131503 13 302 0.0 1.6 0.00 0.00 0.00 84 1011.8
20260506131003 13 302 0.0 3.2 0.00 0.00 0.00 84 1011.7
20260506130503 13 302 0.0 3.2 0.00 0.00 0.00 84 1011.7
20260506130003 13 302 0.0 3.2 0.00 0.00 0.00 84 1011.6
20260506125502 13 302 0.0 3.2 0.00 0.00 0.00 84 1011.6
20260506125004 13 302 0.0 3.2 0.00 0.00 0.00 84 1011.5
20260506124503 13 302 1.6 3.2 0.00 0.00 0.00 84 1011.5
20260506124003 13 302 0.0 3.2 0.00 0.00 0.00 84 1011.5
20260506123002 13 302 0.0 3.2 0.00 0.00 0.00 84 1011.5
20260506122503 13 302 0.0 3.2 0.00 0.00 0.00 84 1011.5
20260506122003 13 302 0.0 3.2 0.00 0.00 0.00 84 1011.5
20260506121003 13 298 0.0 3.2 0.00 0.00 0.00 84 1011.5
20260506120502 13 298 1.6 4.8 0.00 0.00 0.00 84 1011.5
20260506120004 13 298 0.0 4.8 0.00 0.00 0.00 84 1011.5
20260506115503 13 298 1.6 4.8 0.00 0.00 0.00 84 1011.4
20260506115003 13 280 0.0 3.2 0.00 0.00 0.00 84 1011.4
20260506114503 13 280 0.0 4.8 0.00 0.00 0.00 84 1011.2
20260506114003 13 280 0.0 3.2 0.00 0.00 0.00 84 1011.2
20260506113503 13 280 0.0 3.2 0.00 0.00 0.00 84 1011.2
20260506113003 13 280 3.2 4.8 0.00 0.00 0.00 84 1011.1
20260506112003 13 292 3.2 8.0 0.00 0.00 0.00 84 1011.1
20260506111504 13 293 1.6 3.2 0.00 0.00 0.00 84 1011.1
20260506111004 13 293 0.0 1.6 0.00 0.00 0.00 84 1011.0
20260506110503 13 293 0.0 3.2 0.00 0.00 0.00 84 1010.9
20260506110003 13 293 1.6 4.8 0.00 0.00 0.00 84 1010.8
20260506105503 13 289 0.0 3.2 0.00 0.00 0.00 84 1010.8
20260506105003 13 289 0.0 1.6 0.00 0.00 0.00 84 1010.7
20260506104003 13 289 1.6 3.2 0.00 0.00 0.00 84 1010.6
20260506103504 13 289 0.0 4.8 0.00 0.00 0.00 84 1010.5
20260506103004 13 289 0.0 4.8 0.00 0.00 0.00 84 1010.5
20260506102503 13 290 0.0 1.6 0.00 0.00 0.00 84 1010.4
20260506102004 13 290 0.0 3.2 0.00 0.00 0.00 83 1010.3
20260506101504 13 290 0.0 1.6 0.00 0.00 0.00 83 1010.3
20260506101003 13 289 0.0 3.2 0.00 0.00 0.00 83 1010.3
20260506100504 13 290 0.0 3.2 0.00 0.00 0.00 83 1010.3
20260506100004 13 290 0.0 3.2 0.00 0.00 0.00 83 1010.2